LOT6193 EPWA-VTSP

Flight info

Callsign LOT6193
Flight time N/A
Altitude 37000
Route XIMBA DCT OMAVA DCT ROBTU DCT KENIN DCT KARIL DCT ARGES DCT ARTAT UP975 ERGUN UL124 BONAM L124 ZAJ M715 PEKES L124 PG M638 KC G472 TELEM N893 AAE N895 NNP L524 ELBAB L510 IDKUT L645 SAPAM R203 UBNEN UBNEN1D
Aircraft B789/H-SDE1E2E3FGHIJ2J3J4J5M1RWXY/LB1D1

Departure

Time 2026-05-03 22:21
Airport Warsaw Chopin Airport (EPWA)

Arrival

Time N/A
Airport Phuket International Airport (VTSP)
Time Latitude Longitude Altitude Speed Heading
2026-05-03 21:43 52.17506 20.96823 344 ft 0 kts 173°
2026-05-03 22:07 52.17511 20.96822 360 ft 2 kts 173°
2026-05-03 22:07 52.17531 20.96818 355 ft 3 kts 173°
2026-05-03 22:07 52.17551 20.96814 355 ft 3 kts 173°
2026-05-03 22:07 52.17570 20.96810 355 ft 3 kts 174°
2026-05-03 22:08 52.17587 20.96810 355 ft 3 kts 199°
2026-05-03 22:08 52.17601 20.96823 355 ft 3 kts 231°
2026-05-03 22:08 52.17612 20.96849 355 ft 3 kts 239°
2026-05-03 22:08 52.17616 20.96863 355 ft 0 kts 237°
2026-05-03 22:14 52.17616 20.96862 344 ft 0 kts 237°
2026-05-03 22:14 52.17598 20.96814 355 ft 10 kts 237°
2026-05-03 22:14 52.17556 20.96706 352 ft 11 kts 237°
2026-05-03 22:15 52.17514 20.96593 350 ft 13 kts 231°
2026-05-03 22:15 52.17446 20.96440 353 ft 16 kts 244°
2026-05-03 22:15 52.17410 20.96390 351 ft 4 kts 180°
2026-05-03 22:15 52.17353 20.96430 353 ft 15 kts 154°
2026-05-03 22:16 52.17241 20.96526 352 ft 19 kts 151°
2026-05-03 22:16 52.17118 20.96635 353 ft 22 kts 151°
2026-05-03 22:16 52.16970 20.96761 355 ft 26 kts 152°
2026-05-03 22:16 52.16808 20.96904 351 ft 28 kts 152°
2026-05-03 22:17 52.16627 20.97060 353 ft 31 kts 152°
2026-05-03 22:17 52.16440 20.97225 351 ft 30 kts 152°
2026-05-03 22:17 52.16260 20.97383 353 ft 29 kts 152°
2026-05-03 22:17 52.16089 20.97533 353 ft 28 kts 152°
2026-05-03 22:18 52.15907 20.97695 355 ft 31 kts 153°
2026-05-03 22:18 52.15714 20.97852 353 ft 30 kts 154°
2026-05-03 22:18 52.15535 20.98020 354 ft 29 kts 148°
2026-05-03 22:18 52.15368 20.98168 352 ft 26 kts 154°
2026-05-03 22:19 52.15209 20.98297 350 ft 25 kts 150°
2026-05-03 22:19 52.15066 20.98385 344 ft 14 kts 200°
2026-05-03 22:19 52.15039 20.98331 351 ft 5 kts 243°
2026-05-03 22:19 52.15021 20.98273 348 ft 7 kts 243°
2026-05-03 22:20 52.14995 20.98191 348 ft 9 kts 243°
2026-05-03 22:20 52.14978 20.98117 349 ft 3 kts 278°
2026-05-03 22:20 52.14990 20.98097 345 ft 5 kts 328°
2026-05-03 22:20 52.15007 20.98082 350 ft 8 kts 331°
2026-05-03 22:21 52.15239 20.97879 348 ft 73 kts 332°
2026-05-03 22:21 52.15892 20.97307 355 ft 139 kts 331°
2026-05-03 22:21 52.16914 20.96408 376 ft 192 kts 332°
2026-05-03 22:21 52.18102 20.95529 1208 ft 179 kts 339°
2026-05-03 22:22 52.19244 20.94668 1727 ft 187 kts 324°
2026-05-03 22:22 52.20358 20.93511 2184 ft 192 kts 320°
2026-05-03 22:22 52.21506 20.92365 2760 ft 195 kts 322°
2026-05-03 22:22 52.22406 20.90762 3087 ft 193 kts 289°
2026-05-03 22:23 52.22690 20.88677 3614 ft 190 kts 267°
2026-05-03 22:23 52.22289 20.86555 3826 ft 207 kts 239°
2026-05-03 22:23 52.21195 20.84876 4026 ft 232 kts 209°
2026-05-03 22:23 52.19545 20.84371 4426 ft 256 kts 178°
2026-05-03 22:24 52.17888 20.85474 5114 ft 267 kts 151°
2026-05-03 22:24 52.16363 20.87219 5891 ft 270 kts 147°
2026-05-03 22:24 52.14840 20.89033 6601 ft 273 kts 148°
2026-05-03 22:24 52.13264 20.90785 7290 ft 275 kts 149°
2026-05-03 22:25 52.11663 20.92517 7990 ft 278 kts 150°
2026-05-03 22:25 52.10052 20.94285 8694 ft 281 kts 149°
2026-05-03 22:25 52.08430 20.96085 9396 ft 283 kts 149°
2026-05-03 22:25 52.06794 20.97893 10077 ft 285 kts 149°
2026-05-03 22:26 52.05120 20.99731 10484 ft 298 kts 149°
2026-05-03 22:26 52.03359 21.01662 10797 ft 313 kts 149°
2026-05-03 22:26 52.01508 21.03697 11102 ft 328 kts 149°
2026-05-03 22:26 51.99574 21.05823 11428 ft 343 kts 148°
2026-05-03 22:27 51.97553 21.08040 11749 ft 358 kts 148°
2026-05-03 22:27 51.95457 21.10335 12170 ft 368 kts 148°
2026-05-03 22:27 51.93321 21.12675 12778 ft 373 kts 148°
2026-05-03 22:27 51.91159 21.15040 13412 ft 377 kts 148°
2026-05-03 22:28 51.88972 21.17426 14009 ft 381 kts 148°
2026-05-03 22:28 51.86756 21.19841 14569 ft 386 kts 148°
2026-05-03 22:28 51.84518 21.22277 15099 ft 390 kts 148°
2026-05-03 22:28 51.82259 21.24735 15655 ft 394 kts 148°
2026-05-03 22:29 51.79971 21.27220 16205 ft 398 kts 148°
2026-05-03 22:29 51.77664 21.29721 16764 ft 401 kts 148°
2026-05-03 22:29 51.75282 21.32066 17221 ft 403 kts 157°
2026-05-03 22:29 51.72592 21.33325 17725 ft 404 kts 173°
2026-05-03 22:30 51.69793 21.33667 18278 ft 405 kts 180°
2026-05-03 22:30 51.66965 21.33702 18750 ft 408 kts 181°
2026-05-03 22:30 51.64110 21.33842 19188 ft 413 kts 178°
2026-05-03 22:30 51.61248 21.34403 19650 ft 417 kts 173°
2026-05-03 22:31 51.58376 21.35145 20112 ft 420 kts 173°
2026-05-03 22:31 51.55467 21.35721 20557 ft 422 kts 176°
2026-05-03 22:31 51.52526 21.36148 21003 ft 425 kts 176°
2026-05-03 22:31 51.49573 21.36639 21438 ft 429 kts 175°
2026-05-03 22:32 51.46602 21.37230 21874 ft 432 kts 174°
2026-05-03 22:32 51.43604 21.37810 22302 ft 435 kts 175°
2026-05-03 22:32 51.40590 21.38337 22729 ft 438 kts 175°
2026-05-03 22:32 51.37543 21.38865 23145 ft 441 kts 175°
2026-05-03 22:33 51.34484 21.39424 23549 ft 444 kts 174°
2026-05-03 22:33 51.31406 21.39995 23895 ft 447 kts 174°
2026-05-03 22:33 51.28344 21.40547 24240 ft 449 kts 175°
2026-05-03 22:33 51.25191 21.41107 24587 ft 452 kts 174°
2026-05-03 22:34 51.22097 21.41662 24929 ft 454 kts 174°
2026-05-03 22:34 51.18951 21.42232 25239 ft 457 kts 174°
2026-05-03 22:34 51.15783 21.42803 25577 ft 460 kts 174°
2026-05-03 22:34 51.12598 21.43371 25898 ft 462 kts 174°
2026-05-03 22:35 51.09395 21.43943 26241 ft 464 kts 174°
2026-05-03 22:35 51.06185 21.44517 26579 ft 466 kts 174°
2026-05-03 22:35 51.02948 21.45096 26914 ft 468 kts 174°
2026-05-03 22:35 50.99701 21.45674 27230 ft 471 kts 174°
2026-05-03 22:36 50.96438 21.46254 27549 ft 473 kts 174°
2026-05-03 22:36 50.93160 21.46836 27876 ft 475 kts 174°
2026-05-03 22:36 50.89871 21.47421 28198 ft 478 kts 174°
2026-05-03 22:36 50.86556 21.48008 28523 ft 480 kts 173°
2026-05-03 22:37 50.83231 21.48596 28856 ft 482 kts 173°
2026-05-03 22:37 50.79895 21.49185 29179 ft 484 kts 173°
2026-05-03 22:37 50.76535 21.49778 29486 ft 487 kts 173°
2026-05-03 22:37 50.73156 21.50373 29786 ft 489 kts 173°
2026-05-03 22:38 50.69763 21.50970 30097 ft 492 kts 173°
2026-05-03 22:38 50.66354 21.51569 30352 ft 494 kts 173°
2026-05-03 22:38 50.62925 21.52170 30627 ft 496 kts 173°
2026-05-03 22:38 50.59489 21.52772 30902 ft 498 kts 173°
2026-05-03 22:39 50.56037 21.53376 31172 ft 500 kts 173°
2026-05-03 22:39 50.52569 21.53982 31461 ft 502 kts 173°
2026-05-03 22:39 50.49096 21.54587 31730 ft 504 kts 173°
2026-05-03 22:39 50.45604 21.55195 32006 ft 506 kts 173°
2026-05-03 22:40 50.42100 21.55804 32362 ft 506 kts 173°
2026-05-03 22:40 50.38607 21.56411 32744 ft 505 kts 173°
2026-05-03 22:40 50.35114 21.57016 33127 ft 504 kts 173°
2026-05-03 22:40 50.31628 21.57619 33509 ft 504 kts 173°
2026-05-03 22:41 50.28148 21.58221 33891 ft 503 kts 173°
2026-05-03 22:41 50.24671 21.58821 34236 ft 502 kts 173°
2026-05-03 22:41 50.21192 21.59420 34514 ft 503 kts 173°
2026-05-03 22:41 50.17720 21.60017 34814 ft 503 kts 173°
2026-05-03 22:42 50.14239 21.60615 35101 ft 503 kts 173°
2026-05-03 22:42 50.10765 21.61212 35400 ft 502 kts 173°
2026-05-03 22:42 50.07287 21.61807 35706 ft 502 kts 173°
2026-05-03 22:42 50.03824 21.62399 36002 ft 501 kts 173°
2026-05-03 22:43 50.00353 21.62992 36290 ft 501 kts 173°
2026-05-03 22:43 49.96889 21.63583 36564 ft 501 kts 173°
2026-05-03 22:43 49.93422 21.64174 36839 ft 501 kts 173°
2026-05-03 22:43 49.89957 21.64763 37026 ft 502 kts 173°
2026-05-03 22:44 49.86470 21.65356 37077 ft 504 kts 173°
2026-05-03 22:44 49.79541 21.66529 37080 ft 498 kts 173°
2026-05-03 22:45 49.72664 21.67691 37088 ft 497 kts 173°
2026-05-03 22:45 49.65765 21.68853 37100 ft 500 kts 172°
2026-05-03 22:46 49.59962 21.69829 37102 ft 501 kts 172°
2026-05-03 22:46 49.53075 21.70983 37108 ft 500 kts 172°
2026-05-03 22:47 49.46160 21.72139 37103 ft 500 kts 172°
2026-05-03 22:47 49.39224 21.73295 37118 ft 502 kts 172°
2026-05-03 22:48 49.32284 21.74448 37119 ft 501 kts 172°
2026-05-03 22:48 49.25363 21.75595 37130 ft 500 kts 173°
2026-05-03 22:49 49.18433 21.76739 37119 ft 501 kts 172°
2026-05-03 22:49 49.11499 21.77883 37124 ft 500 kts 172°
2026-05-03 22:50 49.04587 21.79018 37123 ft 499 kts 172°
2026-05-03 22:50 48.97678 21.80151 37119 ft 500 kts 172°
2026-05-03 22:51 48.90764 21.81280 37127 ft 501 kts 172°
2026-05-03 22:51 48.83866 21.82721 37131 ft 501 kts 171°
2026-05-03 22:52 48.76953 21.84122 37127 ft 501 kts 171°
2026-05-03 22:52 48.70034 21.85628 37141 ft 503 kts 171°
2026-05-03 22:53 48.63108 21.87066 37130 ft 502 kts 171°
2026-05-03 22:53 48.56206 21.88531 37122 ft 500 kts 171°
2026-05-03 22:54 48.49354 21.89964 37135 ft 500 kts 171°
2026-05-03 22:54 48.42445 21.91412 37139 ft 502 kts 171°
2026-05-03 22:55 48.35630 21.93572 37137 ft 499 kts 156°
2026-05-03 22:55 48.29615 21.98663 37144 ft 496 kts 144°
2026-05-03 22:56 48.23763 22.04151 37139 ft 496 kts 147°
2026-05-03 22:56 48.17839 22.09445 37141 ft 496 kts 146°
2026-05-03 22:57 48.11972 22.14865 37144 ft 496 kts 146°
2026-05-03 22:57 48.06038 22.20197 37143 ft 501 kts 146°
2026-05-03 22:58 48.00016 22.25681 37147 ft 513 kts 146°
2026-05-03 22:58 47.93844 22.31232 37151 ft 522 kts 146°
2026-05-03 22:59 47.87638 22.36825 37156 ft 520 kts 146°
2026-05-03 22:59 47.81434 22.42389 37152 ft 521 kts 146°
2026-05-03 23:00 47.75719 22.48902 37150 ft 519 kts 136°
2026-05-03 23:00 47.70282 22.56023 37160 ft 523 kts 136°
2026-05-03 23:01 47.64768 22.63034 37164 ft 521 kts 136°
2026-05-03 23:01 47.59304 22.70091 37167 ft 522 kts 136°
2026-05-03 23:02 47.53843 22.77043 37155 ft 519 kts 136°
2026-05-03 23:02 47.48402 22.83993 37151 ft 516 kts 136°
2026-05-03 23:03 47.42962 22.90903 37156 ft 515 kts 136°
2026-05-03 23:03 47.37613 22.97683 37157 ft 516 kts 136°
2026-05-03 23:03 47.34977 23.01022 36484 ft 517 kts 137°
2026-05-03 23:04 47.32261 23.04451 37192 ft 509 kts 136°
2026-05-03 23:04 47.26942 23.11152 37173 ft 506 kts 136°
2026-05-03 23:05 47.21535 23.17959 37187 ft 517 kts 136°
2026-05-03 23:05 47.16057 23.24814 37188 ft 516 kts 136°
2026-05-03 23:06 47.10602 23.31641 37176 ft 514 kts 136°
2026-05-03 23:06 47.05141 23.38444 37188 ft 516 kts 136°
2026-05-03 23:07 46.99666 23.45254 37177 ft 517 kts 136°
2026-05-03 23:07 46.94182 23.52050 37175 ft 517 kts 136°
2026-05-03 23:08 46.88701 23.58825 37163 ft 513 kts 136°
2026-05-03 23:08 46.83261 23.65534 37156 ft 512 kts 136°
2026-05-03 23:09 46.77813 23.72232 37161 ft 513 kts 136°
2026-05-03 23:09 46.72380 23.78893 37162 ft 514 kts 136°
2026-05-03 23:10 46.66907 23.85584 37165 ft 512 kts 136°
2026-05-03 23:10 46.61449 23.92240 37184 ft 512 kts 136°
2026-05-03 23:11 46.55995 23.98873 37187 ft 511 kts 136°
2026-05-03 23:11 46.50534 24.05496 37207 ft 512 kts 136°
2026-05-03 23:12 46.45068 24.12108 37180 ft 512 kts 136°
2026-05-03 23:12 46.39591 24.18714 37189 ft 513 kts 136°
2026-05-03 23:13 46.34091 24.25331 37191 ft 514 kts 136°
2026-05-03 23:13 46.28593 24.31926 37187 ft 513 kts 136°
2026-05-03 23:14 46.23100 24.38499 37189 ft 513 kts 136°
2026-05-03 23:14 46.17604 24.45058 37186 ft 512 kts 136°
2026-05-03 23:15 46.12108 24.51599 37186 ft 512 kts 136°
2026-05-03 23:15 46.06603 24.58132 37189 ft 514 kts 136°
2026-05-03 23:16 46.01072 24.64679 37190 ft 515 kts 136°
2026-05-03 23:16 45.95534 24.71218 37192 ft 515 kts 136°
2026-05-03 23:17 45.89989 24.77747 37190 ft 515 kts 136°
2026-05-03 23:17 45.84436 24.84268 37191 ft 516 kts 137°
2026-05-03 23:18 45.78924 24.90723 37183 ft 515 kts 137°
2026-05-03 23:18 45.73371 24.97211 37184 ft 515 kts 137°
2026-05-03 23:19 45.67836 25.03658 37179 ft 516 kts 137°
2026-05-03 23:19 45.62269 25.10127 37188 ft 515 kts 137°
2026-05-03 23:20 45.56736 25.16531 37164 ft 504 kts 137°
2026-05-03 23:20 45.51258 25.22878 37180 ft 513 kts 137°
2026-05-03 23:21 45.45650 25.29336 37170 ft 520 kts 138°
2026-05-03 23:21 45.40043 25.35782 37178 ft 517 kts 137°
2026-05-03 23:22 45.31643 25.45409 37181 ft 517 kts 138°
2026-05-03 23:22 45.26029 25.51825 37191 ft 519 kts 138°
2026-05-03 23:23 45.20431 25.58200 37171 ft 514 kts 138°
2026-05-03 23:23 45.14846 25.64550 37167 ft 515 kts 138°
2026-05-03 23:24 45.09250 25.70890 37166 ft 515 kts 138°
2026-05-03 23:24 45.03665 25.77205 37167 ft 513 kts 139°
2026-05-03 23:25 44.98098 25.83483 37172 ft 512 kts 139°
2026-05-03 23:25 44.92508 25.89771 37154 ft 515 kts 139°
2026-05-03 23:26 44.86909 25.96050 37151 ft 513 kts 139°
2026-05-03 23:26 44.81367 26.02253 37141 ft 511 kts 139°
2026-05-03 23:27 44.75801 26.08464 37133 ft 511 kts 139°
2026-05-03 23:27 44.70227 26.14671 37138 ft 512 kts 139°
2026-05-03 23:28 44.64629 26.20889 37137 ft 513 kts 139°
2026-05-03 23:28 44.59041 26.27077 37138 ft 511 kts 139°
2026-05-03 23:29 44.53461 26.33244 37135 ft 511 kts 140°
2026-05-03 23:29 44.47878 26.39396 37136 ft 510 kts 140°
2026-05-03 23:30 44.42303 26.45528 37148 ft 509 kts 140°
2026-05-03 23:30 44.36727 26.51640 37142 ft 510 kts 140°
2026-05-03 23:31 44.31144 26.57750 37146 ft 510 kts 140°
2026-05-03 23:31 44.25542 26.63862 37146 ft 511 kts 140°
2026-05-03 23:32 44.19939 26.69961 37144 ft 511 kts 140°
2026-05-03 23:32 44.15276 26.75025 37141 ft 511 kts 140°
2026-05-03 23:33 44.09663 26.81117 37138 ft 512 kts 139°
2026-05-03 23:33 44.07111 26.84537 37133 ft 508 kts 128°
2026-05-03 23:33 44.04882 26.88345 37132 ft 507 kts 127°
2026-05-03 23:34 44.00447 26.95943 37132 ft 505 kts 128°
2026-05-03 23:34 43.95992 27.03479 37130 ft 505 kts 127°
2026-05-03 23:35 43.91542 27.11044 37134 ft 507 kts 128°
2026-05-03 23:35 43.87050 27.18621 37136 ft 509 kts 128°
2026-05-03 23:36 43.82559 27.26200 37132 ft 509 kts 128°
2026-05-03 23:36 43.78087 27.33714 37124 ft 510 kts 128°
2026-05-03 23:37 43.73567 27.41298 37127 ft 512 kts 128°
2026-05-03 23:37 43.69025 27.48892 37126 ft 513 kts 129°
2026-05-03 23:38 43.64486 27.56465 37125 ft 511 kts 129°
2026-05-03 23:38 43.59956 27.64002 37126 ft 507 kts 129°
2026-05-03 23:39 43.55508 27.71381 37106 ft 495 kts 129°
2026-05-03 23:39 43.51108 27.78666 37088 ft 494 kts 129°
2026-05-03 23:40 43.46706 27.85935 37088 ft 494 kts 129°
2026-05-03 23:40 43.42308 27.93179 37094 ft 492 kts 129°
2026-05-03 23:41 43.37901 28.00420 37087 ft 494 kts 129°
2026-05-03 23:41 43.33483 28.07660 37088 ft 494 kts 129°
2026-05-03 23:42 43.29055 28.14900 37099 ft 495 kts 129°
2026-05-03 23:42 43.24616 28.22139 37101 ft 497 kts 129°
2026-05-03 23:43 43.20180 28.29355 37087 ft 493 kts 129°
2026-05-03 23:43 43.15744 28.36553 37080 ft 495 kts 129°
2026-05-03 23:44 43.11295 28.43754 37081 ft 493 kts 130°
2026-05-03 23:44 43.06888 28.50871 37072 ft 490 kts 130°
2026-05-03 23:45 43.02454 28.58013 37071 ft 496 kts 130°
2026-05-03 23:45 42.98003 28.65167 37071 ft 492 kts 130°
2026-05-03 23:46 42.93556 28.72293 37064 ft 496 kts 130°
2026-05-03 23:46 42.89074 28.79461 37054 ft 494 kts 130°
2026-05-03 23:47 42.84623 28.86561 37053 ft 493 kts 131°
2026-05-03 23:47 42.80155 28.93670 37058 ft 495 kts 131°
2026-05-03 23:48 42.75716 29.00717 37042 ft 486 kts 131°
2026-05-03 23:48 42.71328 29.07665 37042 ft 490 kts 131°
2026-05-03 23:49 42.66812 29.14800 37042 ft 496 kts 131°
2026-05-03 23:49 42.62359 29.21819 37042 ft 494 kts 131°
2026-05-03 23:50 42.57839 29.28924 37033 ft 500 kts 131°
2026-05-03 23:50 42.53340 29.35982 37010 ft 487 kts 131°
2026-05-03 23:51 42.48914 29.42903 37023 ft 487 kts 131°
2026-05-03 23:51 42.44443 29.49885 37021 ft 490 kts 131°
2026-05-03 23:52 42.40002 29.56801 37000 ft 485 kts 131°
2026-05-03 23:52 42.36095 29.64259 36997 ft 491 kts 117°
2026-05-03 23:53 42.33737 29.72892 37005 ft 489 kts 110°
2026-05-03 23:53 42.31526 29.81633 36982 ft 491 kts 110°
2026-05-03 23:54 42.29303 29.90333 36999 ft 492 kts 111°
2026-05-03 23:54 42.27084 29.99033 36971 ft 488 kts 110°
2026-05-03 23:55 42.24849 30.07726 36988 ft 490 kts 111°
2026-05-03 23:55 42.22615 30.16407 36983 ft 492 kts 111°
2026-05-03 23:56 42.20374 30.25072 36961 ft 487 kts 111°
2026-05-03 23:56 42.18128 30.33728 36958 ft 488 kts 111°
2026-05-03 23:57 42.15883 30.42354 36960 ft 489 kts 111°
2026-05-03 23:57 42.13646 30.50912 36947 ft 484 kts 111°
2026-05-03 23:58 42.11397 30.59487 36937 ft 485 kts 111°
2026-05-03 23:58 42.09142 30.68056 36945 ft 487 kts 111°
2026-05-03 23:59 42.06881 30.76617 36932 ft 485 kts 111°
2026-05-03 23:59 42.04616 30.85163 36928 ft 484 kts 111°
2026-05-04 00:00 42.02348 30.93689 36941 ft 485 kts 111°
2026-05-04 00:00 42.00075 31.02205 36936 ft 484 kts 111°
2026-05-04 00:01 41.97796 31.10733 36925 ft 485 kts 111°
2026-05-04 00:01 41.95505 31.19288 36925 ft 487 kts 111°
2026-05-04 00:02 41.93200 31.27849 36926 ft 487 kts 111°
2026-05-04 00:02 41.90899 31.36379 36920 ft 485 kts 111°
2026-05-04 00:03 41.88598 31.44872 36907 ft 483 kts 111°
2026-05-04 00:03 41.86298 31.53336 36907 ft 483 kts 111°
2026-05-04 00:04 41.83991 31.61795 36900 ft 483 kts 111°
2026-05-04 00:04 41.81673 31.70253 36891 ft 483 kts 112°
2026-05-04 00:05 41.79343 31.78680 36890 ft 482 kts 111°
2026-05-04 00:05 41.77018 31.87122 36884 ft 483 kts 112°
2026-05-04 00:06 41.74681 31.95541 36873 ft 483 kts 112°
2026-05-04 00:06 41.72341 32.03962 36862 ft 482 kts 112°
2026-05-04 00:07 41.69992 32.12379 36866 ft 483 kts 112°
2026-05-04 00:07 41.67658 32.20728 36866 ft 484 kts 112°
2026-05-04 00:08 41.65303 32.29151 36859 ft 485 kts 111°
2026-05-04 00:08 41.62933 32.37616 36862 ft 486 kts 112°
2026-05-04 00:09 41.60538 32.46053 36852 ft 485 kts 112°
2026-05-04 00:09 41.58154 32.54483 36849 ft 485 kts 112°
2026-05-04 00:10 41.55763 32.62893 36839 ft 484 kts 112°
2026-05-04 00:10 41.53370 32.71289 36839 ft 484 kts 112°
2026-05-04 00:11 41.50967 32.79688 36859 ft 485 kts 112°
2026-05-04 00:11 41.48556 32.88091 36848 ft 485 kts 112°
2026-05-04 00:12 41.46143 32.96473 36850 ft 484 kts 112°
2026-05-04 00:12 41.43170 33.04463 36859 ft 482 kts 120°
2026-05-04 00:13 41.39936 33.12316 36858 ft 484 kts 120°
2026-05-04 00:13 41.36658 33.20172 36855 ft 487 kts 120°
2026-05-04 00:14 41.33395 33.28067 36858 ft 487 kts 119°
2026-05-04 00:14 41.30242 33.36040 36855 ft 487 kts 119°
2026-05-04 00:15 41.27055 33.43925 36836 ft 488 kts 119°
2026-05-04 00:15 41.23939 33.51935 36827 ft 487 kts 119°
2026-05-04 00:16 41.20757 33.59889 36827 ft 488 kts 119°
2026-05-04 00:16 41.17605 33.67859 36819 ft 488 kts 120°
2026-05-04 00:17 41.14425 33.75819 36814 ft 489 kts 120°
2026-05-04 00:17 41.11243 33.83791 36807 ft 489 kts 120°
2026-05-04 00:18 41.08057 33.91739 36803 ft 489 kts 120°
2026-05-04 00:18 41.04861 33.99695 36798 ft 489 kts 120°
2026-05-04 00:19 41.01667 34.07626 36784 ft 488 kts 120°
2026-05-04 00:19 40.98471 34.15536 36780 ft 486 kts 120°
2026-05-04 00:20 40.95281 34.23414 36782 ft 485 kts 120°
2026-05-04 00:20 40.92625 34.29954 36786 ft 487 kts 120°
2026-05-04 00:21 40.89412 34.37852 36786 ft 487 kts 120°
2026-05-04 00:21 40.86197 34.45730 36772 ft 487 kts 121°
2026-05-04 00:22 40.82979 34.53596 36782 ft 486 kts 121°
2026-05-04 00:22 40.79759 34.61448 36782 ft 487 kts 121°
2026-05-04 00:23 40.76531 34.69297 36778 ft 487 kts 121°
2026-05-04 00:23 40.73834 34.77492 36769 ft 491 kts 109°
2026-05-04 00:24 40.71941 34.86145 36759 ft 492 kts 109°
2026-05-04 00:24 40.70018 34.94791 36763 ft 492 kts 109°
2026-05-04 00:25 40.68095 35.03444 36762 ft 493 kts 109°
2026-05-04 00:25 40.66156 35.12128 36762 ft 494 kts 109°
2026-05-04 00:26 40.64215 35.20779 36762 ft 492 kts 109°
2026-05-04 00:26 40.62272 35.29413 36741 ft 491 kts 109°
2026-05-04 00:27 40.60312 35.38081 36768 ft 496 kts 109°
2026-05-04 00:27 40.58355 35.46719 36771 ft 496 kts 109°
2026-05-04 00:28 40.56376 35.55403 36768 ft 495 kts 109°
2026-05-04 00:28 40.54393 35.64078 36761 ft 497 kts 109°
2026-05-04 00:29 40.52394 35.72789 36768 ft 498 kts 109°
2026-05-04 00:29 40.50389 35.81490 36778 ft 497 kts 110°
2026-05-04 00:30 40.48377 35.90188 36760 ft 498 kts 110°
2026-05-04 00:30 40.46352 35.98908 36784 ft 499 kts 110°
2026-05-04 00:31 40.44318 36.07640 36785 ft 500 kts 110°
2026-05-04 00:31 40.42281 36.16347 36785 ft 499 kts 110°
2026-05-04 00:32 40.40232 36.25069 36775 ft 501 kts 110°
2026-05-04 00:32 40.38175 36.33796 36773 ft 500 kts 110°
2026-05-04 00:33 40.35082 36.46854 36779 ft 499 kts 110°
2026-05-04 00:34 40.33017 36.55529 36773 ft 501 kts 110°
2026-05-04 00:34 40.30935 36.64246 36774 ft 501 kts 110°
2026-05-04 00:35 40.28845 36.72965 36763 ft 502 kts 110°
2026-05-04 00:35 40.26747 36.81681 36756 ft 502 kts 111°
2026-05-04 00:36 40.24632 36.90433 36758 ft 504 kts 111°
2026-05-04 00:36 40.22512 36.99177 36750 ft 504 kts 111°
2026-05-04 00:37 40.20388 37.07906 36729 ft 504 kts 111°
2026-05-04 00:37 40.18247 37.16663 36748 ft 507 kts 111°
2026-05-04 00:38 40.16114 37.25372 36747 ft 506 kts 111°
2026-05-04 00:38 40.13957 37.34128 36747 ft 506 kts 111°
2026-05-04 00:39 40.11789 37.42908 36745 ft 511 kts 111°
2026-05-04 00:39 40.09596 37.51755 36725 ft 510 kts 111°
2026-05-04 00:40 40.07293 37.60487 36732 ft 507 kts 115°
2026-05-04 00:40 40.04780 37.69090 36727 ft 508 kts 114°
2026-05-04 00:41 40.02269 37.77706 36724 ft 509 kts 115°
2026-05-04 00:41 39.99737 37.86323 36728 ft 509 kts 115°
2026-05-04 00:42 39.97209 37.94934 36712 ft 509 kts 115°
2026-05-04 00:42 39.94645 38.03605 36733 ft 513 kts 115°
2026-05-04 00:43 39.92085 38.12267 36724 ft 511 kts 115°
2026-05-04 00:43 39.89518 38.20897 36722 ft 511 kts 115°
2026-05-04 00:44 39.86944 38.29539 36722 ft 514 kts 116°
2026-05-04 00:44 39.84352 38.38208 36722 ft 514 kts 116°
2026-05-04 00:45 39.81755 38.46864 36731 ft 514 kts 116°
2026-05-04 00:45 39.79151 38.55520 36724 ft 514 kts 116°
2026-05-04 00:46 39.76540 38.64167 36727 ft 514 kts 116°
2026-05-04 00:46 39.73925 38.72801 36730 ft 513 kts 116°
2026-05-04 00:47 39.71308 38.81415 36742 ft 513 kts 117°
2026-05-04 00:47 39.68678 38.90042 36752 ft 514 kts 117°
2026-05-04 00:48 39.66037 38.98681 36758 ft 515 kts 117°
2026-05-04 00:48 39.63392 39.07305 36762 ft 515 kts 117°
2026-05-04 00:49 39.60726 39.15965 36777 ft 517 kts 117°
2026-05-04 00:49 39.58071 39.24571 36776 ft 517 kts 117°
2026-05-04 00:50 39.55397 39.33200 36782 ft 517 kts 117°
2026-05-04 00:50 39.52703 39.41873 36779 ft 519 kts 117°
2026-05-04 00:51 39.50170 39.50648 36787 ft 522 kts 113°
2026-05-04 00:51 39.47901 39.59582 36776 ft 521 kts 114°
2026-05-04 00:52 39.45598 39.68468 36798 ft 522 kts 114°
2026-05-04 00:52 39.43302 39.77391 36804 ft 522 kts 113°
2026-05-04 00:53 39.40991 39.86284 36795 ft 522 kts 114°
2026-05-04 00:53 39.38668 39.95206 36828 ft 526 kts 114°
2026-05-04 00:54 39.36337 40.04144 36827 ft 521 kts 114°
2026-05-04 00:54 39.34014 40.12993 36830 ft 520 kts 114°
2026-05-04 00:55 39.31683 40.21870 36851 ft 525 kts 114°
2026-05-04 00:55 39.29397 40.30824 36858 ft 525 kts 113°
2026-05-04 00:56 39.27074 40.39755 36868 ft 525 kts 114°
2026-05-04 00:56 39.24754 40.48696 36886 ft 526 kts 113°
2026-05-04 00:57 39.22429 40.57620 36884 ft 524 kts 114°
2026-05-04 00:57 39.20096 40.66523 36882 ft 523 kts 114°
2026-05-04 00:58 39.17778 40.75356 36892 ft 526 kts 114°
2026-05-04 00:58 39.15416 40.84312 36898 ft 528 kts 114°
2026-05-04 00:59 39.13054 40.93252 36896 ft 526 kts 114°
2026-05-04 00:59 39.10687 41.02159 36901 ft 526 kts 115°
2026-05-04 01:00 39.08312 41.11080 36903 ft 528 kts 115°
2026-05-04 01:00 39.05925 41.20010 36907 ft 527 kts 115°
2026-05-04 01:01 39.03535 41.28919 36885 ft 527 kts 115°
2026-05-04 01:01 39.01139 41.37818 36884 ft 526 kts 115°
2026-05-04 01:02 38.98739 41.46705 36886 ft 526 kts 115°
2026-05-04 01:02 38.96333 41.55579 36868 ft 526 kts 115°
2026-05-04 01:03 38.93913 41.64473 36896 ft 528 kts 115°
2026-05-04 01:03 38.91484 41.73375 36893 ft 528 kts 115°
2026-05-04 01:04 38.89051 41.82256 36864 ft 527 kts 115°
2026-05-04 01:04 38.86601 41.91164 36896 ft 530 kts 115°
2026-05-04 01:05 38.84144 42.00078 36906 ft 530 kts 115°
2026-05-04 01:05 38.81672 42.09005 36907 ft 531 kts 116°
2026-05-04 01:06 38.79188 42.17947 36902 ft 534 kts 116°
2026-05-04 01:06 38.77118 42.25387 36898 ft 532 kts 116°
2026-05-04 01:07 38.74624 42.34305 36902 ft 531 kts 116°
2026-05-04 01:07 38.72121 42.43227 36896 ft 534 kts 116°
2026-05-04 01:08 38.69599 42.52197 36897 ft 535 kts 116°
2026-05-04 01:08 38.67077 42.61127 36886 ft 532 kts 116°
2026-05-04 01:09 38.64550 42.70039 36892 ft 536 kts 116°
2026-05-04 01:09 38.62002 42.79010 36898 ft 536 kts 116°
2026-05-04 01:10 38.59449 42.87962 36891 ft 535 kts 116°
2026-05-04 01:10 38.56892 42.96891 36880 ft 536 kts 117°
2026-05-04 01:11 38.54321 43.05848 36881 ft 537 kts 117°
2026-05-04 01:11 38.51738 43.14813 36911 ft 538 kts 117°
2026-05-04 01:12 38.49149 43.23766 36919 ft 538 kts 117°
2026-05-04 01:12 38.46519 43.32611 36908 ft 533 kts 122°
2026-05-04 01:13 38.42983 43.40818 36917 ft 528 kts 126°
2026-05-04 01:13 38.39415 43.49035 36907 ft 530 kts 126°
2026-05-04 01:14 38.35821 43.57227 36912 ft 529 kts 126°